Regional Weather Roundup
Issued by NWS

Home | Current Version | Previous Version | Text Only | Print | Product List | Glossary Off
Versions: 1 2 3 4 5 6 7 8 9 10 11 12 13 14 15 16 17 18 19 20 21 22 23 24 25 26 27 28 29 30 31 32 33 34 35 36 37 38 39 40 41 42 43 44 45 46 47 48 49 50

386
ASUS44 KMEG 241810
RWRTN
TENNESSEE HOURLY STATE WEATHER ROUNDUP
NATIONAL WEATHER SERVICE MEMPHIS TN
100 PM CDT WED AUG 24 2016

TNZ002-004-019-021-049-052-054-088>092-241900-
WEST TENNESSEE

CITY           SKY/WX    TMP DP  RH WIND       PRES   REMARKS
MEMPHIS INTL   MOSUNNY   93  75  55 SW7       30.17S HX 104
NWS MEMPHIS      N/A     90 N/A N/A MISG        N/A
JACKSON        PTSUNNY   91  75  59 S8        30.16F HX 101
DYERSBURG      PTSUNNY   91  75  59 MISG      30.14F HX 102
UNION CITY     SUNNY     91  77  62 SW10      30.13F HX 105
PARIS          SUNNY     88  75  66 S7        30.17F HX  97
LEXINGTON      MOSUNNY   90  75  62 S8          N/A  HX 100
$$

TNZ008-025-027-028-033-062-065-066-241900-
NORTH MIDDLE TENNESSEE

CITY           SKY/WX    TMP DP  RH WIND       PRES   REMARKS
NASHVILLE      CLOUDY    90  71  53 VRB3      30.20F HX  96
CLARKSVILLE    PTSUNNY   86  74  67 S8        30.17F HX  94
SMYRNA         MOSUNNY   88  72  58 MISG      30.22F HX  94
COOKEVILLE     MOSUNNY   90  73  58 SW5       30.22F HX  98
CROSSVILLE     MOSUNNY   83  67  58 SW6       30.28F
$$

TNZ061-075-076-078-094-096-097-241900-
SOUTH MIDDLE TENNESSEE

CITY           SKY/WX    TMP DP  RH WIND       PRES   REMARKS
FAYETTEVILLE   MOSUNNY   88  72  58 CALM      30.22F HX  94
TULLAHOMA      PTSUNNY   88  66  48 VRB5      30.24F HX  90
WINCHESTER     PTSUNNY   88  72  58 VRB3      30.23F HX  94
MCMINNVILLE    SUNNY     90  72  55 CALM      30.23F HX  96
COLUMBIA       PTSUNNY   90  77  66 S5        30.19F HX 102
SHELBYVILLE    MOSUNNY   91  73  55 SW6       30.22F HX 100
$$

TNZ017-018-042-046-047-241900-
NORTHEAST TENNESSEE

CITY           SKY/WX    TMP DP  RH WIND       PRES   REMARKS
TRI CITIES     PTSUNNY   80  67  64 VRB5      30.30F
ELIZABETHTON   PTSUNNY   77  68  73 S3        30.31S
$$

TNZ012-013-036-069-073-074-241900-
CENTRAL EAST TENNESSEE

CITY           SKY/WX    TMP DP  RH WIND       PRES   REMARKS
KNOXVILLE      CLOUDY    87  68  52 SW8       30.24F HX  90
OAK RIDGE      CLOUDY    86  69  56 VRB5      30.26F HX  90
GATLINBURG     MOSUNNY   84  66  54 CALM      30.25S
MORRISTOWN     CLOUDY    82  70  65 CALM      30.26F
$$

TNZ083-085-099-241900-
SOUTHEAST TENNESSEE

CITY           SKY/WX    TMP DP  RH WIND       PRES   REMARKS
CHATTANOOGA    PTSUNNY   86  71  60 VRB3      30.23F HX  91
$$

SKY/WX REPORTED AS FAIR MEANS FEW OR NO CLOUDS BELOW
12 THOUSAND FEET.





USA.gov is the U.S. government's official web portal to all federal, state and local government web resources and services.